Time,TemperatureF,DewpointF,PressureIn,WindDirection,WindDirectionDegrees,WindSpeedMPH,WindSpeedGustMPH,Humidity,HourlyPrecipIn,Conditions,Clouds,dailyrainin,SoftwareType,DateUTC
2013-05-26 00:01:00,68.7,60.9,29.03,SSE,158,0.0,0.0,76,0.00,,---,0.00,VWS V14.01,2013-05-26 05:01:00,
2013-05-26 00:06:00,68.7,61.2,29.03,SSE,158,0.0,0.0,77,0.00,,---,0.00,VWS V14.01,2013-05-26 05:06:00,
2013-05-26 00:11:00,68.5,61.0,29.06,SSE,158,0.0,0.0,77,0.00,,---,0.00,VWS V14.01,2013-05-26 05:11:00,
2013-05-26 00:16:00,68.4,60.9,29.06,SSE,158,0.0,0.0,77,0.00,,---,0.00,VWS V14.01,2013-05-26 05:16:00,
2013-05-26 00:21:00,68.4,60.9,29.06,SSE,158,0.0,0.0,77,0.00,,---,0.00,VWS V14.01,2013-05-26 05:21:00,
2013-05-26 00:26:00,68.4,61.2,29.03,SSE,158,0.0,0.0,78,0.00,,---,0.00,VWS V14.01,2013-05-26 05:26:00,
2013-05-26 00:31:00,68.5,61.4,29.03,SSE,158,0.0,0.0,78,0.00,,---,0.00,VWS V14.01,2013-05-26 05:31:00,
2013-05-26 00:36:00,68.5,61.4,29.03,SSE,158,0.0,0.0,78,0.00,,---,0.00,VWS V14.01,2013-05-26 05:36:00,
2013-05-26 00:41:00,68.9,62.1,29.06,SE,135,0.0,0.0,79,0.00,,---,0.00,VWS V14.01,2013-05-26 05:41:00,
2013-05-26 00:46:00,69.3,62.5,29.06,SSE,158,0.0,0.0,79,0.00,,---,0.00,VWS V14.01,2013-05-26 05:46:00,
2013-05-26 00:51:00,69.4,62.3,29.06,SSE,158,0.0,0.0,78,0.00,,---,0.00,VWS V14.01,2013-05-26 05:51:00,
2013-05-26 00:56:00,69.4,62.3,29.06,SSE,158,0.0,0.0,78,0.00,,---,0.00,VWS V14.01,2013-05-26 05:56:00,
2013-05-26 01:01:00,69.4,62.3,29.06,SSE,158,0.0,0.0,78,0.00,,---,0.00,VWS V14.01,2013-05-26 06:01:00,
2013-05-26 01:06:00,69.3,62.1,29.06,East,90,0.0,0.0,78,0.00,,---,0.00,VWS V14.01,2013-05-26 06:06:00,
2013-05-26 01:11:00,69.3,62.1,29.03,NE,45,0.0,0.0,78,0.00,,---,0.00,VWS V14.01,2013-05-26 06:11:00,
2013-05-26 01:16:00,69.3,62.1,29.03,NE,45,0.0,0.0,78,0.00,,---,0.00,VWS V14.01,2013-05-26 06:16:00,
2013-05-26 01:21:00,69.1,61.9,29.03,NNE,22,0.0,0.0,78,0.00,,---,0.00,VWS V14.01,2013-05-26 06:21:00,
2013-05-26 01:26:00,68.9,61.8,29.03,NNE,22,0.0,0.0,78,0.00,,---,0.00,VWS V14.01,2013-05-26 06:26:00,
2013-05-26 01:31:00,68.7,62.0,29.03,NNE,22,0.0,0.0,79,0.00,,---,0.00,VWS V14.01,2013-05-26 06:31:00,
2013-05-26 01:36:00,68.5,61.8,29.03,NNE,22,0.0,0.0,79,0.00,,---,0.00,VWS V14.01,2013-05-26 06:36:00,
2013-05-26 01:41:00,68.5,61.8,29.00,NNE,22,0.0,0.0,79,0.00,,---,0.00,VWS V14.01,2013-05-26 06:41:00,
2013-05-26 01:46:00,68.5,61.8,29.00,NE,45,0.0,0.0,79,0.00,,---,0.00,VWS V14.01,2013-05-26 06:46:00,
2013-05-26 01:51:00,68.5,62.1,29.00,NNW,338,0.0,0.0,80,0.00,,---,0.00,VWS V14.01,2013-05-26 06:51:00,
2013-05-26 01:56:00,68.5,62.1,29.03,NNW,338,0.0,0.0,80,0.00,,---,0.00,VWS V14.01,2013-05-26 06:56:00,
2013-05-26 02:01:00,68.5,62.1,29.03,NNW,338,0.0,0.0,80,0.00,,---,0.00,VWS V14.01,2013-05-26 07:01:00,
2013-05-26 02:06:00,68.5,62.1,29.03,ENE,68,0.0,0.0,80,0.00,,---,0.00,VWS V14.01,2013-05-26 07:06:00,
2013-05-26 02:11:00,68.7,62.3,29.03,East,90,0.0,0.0,80,0.00,,---,0.00,VWS V14.01,2013-05-26 07:11:00,
2013-05-26 02:16:00,68.7,62.3,29.03,East,90,0.0,0.0,80,0.00,,---,0.00,VWS V14.01,2013-05-26 07:16:00,
2013-05-26 02:21:00,68.9,62.5,29.03,ENE,68,0.0,0.0,80,0.00,,---,0.00,VWS V14.01,2013-05-26 07:21:00,
2013-05-26 02:26:00,68.9,62.8,29.03,NE,45,0.0,0.0,81,0.00,,---,0.00,VWS V14.01,2013-05-26 07:26:00,
2013-05-26 02:31:00,68.9,62.5,29.03,NE,45,0.0,0.0,80,0.00,,---,0.00,VWS V14.01,2013-05-26 07:31:00,
2013-05-26 02:36:00,69.1,63.0,29.03,NE,45,0.0,0.0,81,0.00,,---,0.00,VWS V14.01,2013-05-26 07:36:00,
2013-05-26 02:41:00,69.1,62.7,29.03,NNE,22,0.0,0.0,80,0.00,,---,0.00,VWS V14.01,2013-05-26 07:41:00,
2013-05-26 02:46:00,68.9,62.5,29.03,NNE,22,0.0,0.0,80,0.00,,---,0.00,VWS V14.01,2013-05-26 07:46:00,
2013-05-26 02:51:00,68.9,62.5,29.03,NNE,22,0.0,0.0,80,0.00,,---,0.00,VWS V14.01,2013-05-26 07:51:00,
2013-05-26 02:56:00,68.7,62.7,29.03,NE,45,0.0,0.0,81,0.00,,---,0.00,VWS V14.01,2013-05-26 07:56:00,
2013-05-26 03:01:00,68.7,62.7,29.03,NE,45,0.0,0.0,81,0.00,,---,0.00,VWS V14.01,2013-05-26 08:01:00,
2013-05-26 03:06:00,68.7,62.3,29.03,NE,45,0.0,0.0,80,0.00,,---,0.00,VWS V14.01,2013-05-26 08:06:00,
2013-05-26 03:11:00,68.5,62.5,29.06,North,0,0.0,0.0,81,0.00,,---,0.00,VWS V14.01,2013-05-26 08:11:00,
2013-05-26 03:16:00,68.5,62.5,29.06,North,0,0.0,0.0,81,0.00,,---,0.00,VWS V14.01,2013-05-26 08:16:00,
2013-05-26 03:21:00,68.5,62.5,29.06,North,0,0.0,0.0,81,0.00,,---,0.00,VWS V14.01,2013-05-26 08:21:00,
2013-05-26 03:26:00,68.5,62.5,29.03,NE,45,0.0,0.0,81,0.00,,---,0.00,VWS V14.01,2013-05-26 08:26:00,
2013-05-26 03:31:00,68.4,62.3,29.03,NNE,22,0.0,0.0,81,0.00,,---,0.00,VWS V14.01,2013-05-26 08:31:00,
2013-05-26 03:36:00,68.4,62.3,29.03,ENE,68,0.0,0.0,81,0.00,,---,0.00,VWS V14.01,2013-05-26 08:36:00,
2013-05-26 03:41:00,68.4,62.3,29.03,SSE,158,0.0,0.0,81,0.00,,---,0.00,VWS V14.01,2013-05-26 08:41:00,
2013-05-26 03:46:00,68.4,62.7,29.03,ESE,112,0.0,0.0,82,0.00,,---,0.00,VWS V14.01,2013-05-26 08:46:00,
2013-05-26 03:51:00,68.2,62.5,29.03,ESE,112,0.0,0.0,82,0.00,,---,0.00,VWS V14.01,2013-05-26 08:51:00,
2013-05-26 03:56:00,68.0,62.3,29.03,ESE,112,0.0,0.0,82,0.00,,---,0.00,VWS V14.01,2013-05-26 08:56:00,
2013-05-26 04:01:00,68.0,62.3,29.03,East,90,0.0,0.0,82,0.00,,---,0.00,VWS V14.01,2013-05-26 09:01:00,
2013-05-26 04:06:00,68.0,62.3,29.03,East,90,0.0,0.0,82,0.00,,---,0.00,VWS V14.01,2013-05-26 09:06:00,
2013-05-26 04:11:00,68.0,62.3,29.03,East,90,0.0,0.0,82,0.00,,---,0.00,VWS V14.01,2013-05-26 09:11:00,
2013-05-26 04:16:00,67.8,62.5,29.03,East,90,0.0,0.0,83,0.00,,---,0.00,VWS V14.01,2013-05-26 09:16:00,
2013-05-26 04:21:00,67.6,62.3,29.03,East,90,0.0,0.0,83,0.00,,---,0.00,VWS V14.01,2013-05-26 09:21:00,
2013-05-26 04:26:00,67.6,62.3,29.03,ENE,68,0.0,0.0,83,0.00,,---,0.00,VWS V14.01,2013-05-26 09:26:00,
2013-05-26 04:31:00,67.5,62.5,29.03,East,90,0.0,0.0,84,0.00,,---,0.00,VWS V14.01,2013-05-26 09:31:00,
2013-05-26 04:36:00,67.5,62.5,29.03,NNE,22,0.0,0.0,84,0.00,,---,0.00,VWS V14.01,2013-05-26 09:36:00,
2013-05-26 04:41:00,67.5,62.5,29.03,NNE,22,0.0,0.0,84,0.00,,---,0.00,VWS V14.01,2013-05-26 09:41:00,
2013-05-26 04:46:00,67.5,62.5,29.03,North,0,0.0,0.0,84,0.00,,---,0.00,VWS V14.01,2013-05-26 09:46:00,
2013-05-26 04:51:00,67.5,62.8,29.03,NE,45,0.0,0.0,85,0.00,,---,0.00,VWS V14.01,2013-05-26 09:51:00,
2013-05-26 04:56:00,67.6,63.0,29.00,NNE,22,0.0,0.0,85,0.00,,---,0.00,VWS V14.01,2013-05-26 09:56:00,
2013-05-26 05:01:00,67.6,63.0,29.00,NE,45,0.0,0.0,85,0.00,,---,0.00,VWS V14.01,2013-05-26 10:01:00,
2013-05-26 05:06:00,67.6,63.0,29.00,East,90,0.0,0.0,85,0.00,,---,0.00,VWS V14.01,2013-05-26 10:06:00,
2013-05-26 05:11:00,67.8,63.2,29.00,East,90,0.0,0.0,85,0.00,,---,0.00,VWS V14.01,2013-05-26 10:11:00,
2013-05-26 05:16:00,67.8,63.2,29.00,ENE,68,0.0,0.0,85,0.00,,---,0.00,VWS V14.01,2013-05-26 10:16:00,
2013-05-26 05:21:00,67.8,63.2,29.00,ENE,68,0.0,0.0,85,0.00,,---,0.00,VWS V14.01,2013-05-26 10:21:00,
2013-05-26 05:26:00,67.8,63.2,29.00,ENE,68,0.0,0.0,85,0.00,,---,0.00,VWS V14.01,2013-05-26 10:26:00,
2013-05-26 05:31:00,67.8,63.2,29.00,NNE,22,0.0,0.0,85,0.00,,---,0.00,VWS V14.01,2013-05-26 10:31:00,
2013-05-26 05:36:00,67.6,63.0,29.00,NNW,338,0.0,0.0,85,0.00,,---,0.00,VWS V14.01,2013-05-26 10:36:00,
2013-05-26 05:41:00,67.6,63.0,29.00,NE,45,0.0,0.0,85,0.00,,---,0.00,VWS V14.01,2013-05-26 10:41:00,
2013-05-26 05:46:00,67.6,63.0,29.00,NE,45,0.0,0.0,85,0.00,,---,0.00,VWS V14.01,2013-05-26 10:46:00,
2013-05-26 05:51:00,67.5,62.8,29.00,NE,45,0.0,0.0,85,0.00,,---,0.00,VWS V14.01,2013-05-26 10:51:00,
2013-05-26 05:56:00,67.5,62.8,29.00,WSW,248,0.0,0.0,85,0.00,,---,0.00,VWS V14.01,2013-05-26 10:56:00,
2013-05-26 06:01:00,67.6,63.3,29.00,East,90,0.0,0.0,86,0.00,,---,0.00,VWS V14.01,2013-05-26 11:01:00,
2013-05-26 06:06:00,67.6,63.0,29.00,East,90,0.0,0.0,85,0.00,,---,0.00,VWS V14.01,2013-05-26 11:06:00,
2013-05-26 06:11:00,67.6,63.3,29.00,East,90,0.0,0.0,86,0.00,,---,0.00,VWS V14.01,2013-05-26 11:11:00,
2013-05-26 06:16:00,67.6,63.3,29.00,NNW,338,0.0,0.0,86,0.00,,---,0.00,VWS V14.01,2013-05-26 11:16:00,
2013-05-26 06:21:00,67.6,63.3,29.00,WSW,248,0.0,0.0,86,0.00,,---,0.00,VWS V14.01,2013-05-26 11:21:00,
2013-05-26 06:26:00,67.6,63.3,29.03,SSE,158,0.0,0.0,86,0.00,,---,0.00,VWS V14.01,2013-05-26 11:26:00,
2013-05-26 06:31:00,67.8,63.5,29.03,East,90,0.0,0.0,86,0.00,,---,0.00,VWS V14.01,2013-05-26 11:31:00,
2013-05-26 06:36:00,67.8,63.5,29.03,NE,45,0.0,0.0,86,0.00,,---,0.00,VWS V14.01,2013-05-26 11:36:00,
2013-05-26 06:41:00,68.0,63.7,29.03,East,90,0.0,0.0,86,0.00,,---,0.00,VWS V14.01,2013-05-26 11:41:00,
2013-05-26 06:46:00,68.0,63.3,29.03,NE,45,0.0,0.0,85,0.00,,---,0.00,VWS V14.01,2013-05-26 11:46:00,
2013-05-26 06:51:00,68.2,63.5,29.03,ENE,68,0.0,0.0,85,0.00,,---,0.00,VWS V14.01,2013-05-26 11:51:00,
2013-05-26 06:56:00,68.2,63.5,29.03,ENE,68,0.0,0.0,85,0.00,,---,0.00,VWS V14.01,2013-05-26 11:56:00,
2013-05-26 07:01:00,68.4,63.7,29.03,ENE,68,0.0,0.0,85,0.00,,---,0.00,VWS V14.01,2013-05-26 12:01:00,
2013-05-26 07:06:00,68.5,63.9,29.03,NNE,22,0.0,0.0,85,0.00,,---,0.00,VWS V14.01,2013-05-26 12:06:00,
2013-05-26 07:11:00,68.7,64.0,29.03,ENE,68,0.0,0.0,85,0.00,,---,0.00,VWS V14.01,2013-05-26 12:11:00,
2013-05-26 07:16:00,68.7,64.0,29.03,NE,45,0.0,0.0,85,0.00,,---,0.00,VWS V14.01,2013-05-26 12:16:00,
2013-05-26 07:21:00,68.9,64.2,29.03,NNW,338,0.0,0.0,85,0.00,,---,0.00,VWS V14.01,2013-05-26 12:21:00,
2013-05-26 07:26:00,69.1,64.1,29.00,ENE,68,0.0,0.0,84,0.00,,---,0.00,VWS V14.01,2013-05-26 12:26:00,
2013-05-26 07:31:00,69.3,64.2,29.00,SSW,202,0.0,0.0,84,0.00,,---,0.00,VWS V14.01,2013-05-26 12:31:00,
2013-05-26 07:36:00,69.4,64.4,29.00,NNW,338,0.0,0.0,84,0.00,,---,0.00,VWS V14.01,2013-05-26 12:36:00,
2013-05-26 07:41:00,69.8,64.4,29.00,WNW,292,0.0,0.0,83,0.00,,---,0.00,VWS V14.01,2013-05-26 12:41:00,
2013-05-26 07:46:00,70.2,64.8,29.00,NNW,338,0.0,0.0,83,0.00,,---,0.00,VWS V14.01,2013-05-26 12:46:00,
2013-05-26 07:51:00,70.5,64.8,29.00,NNW,338,0.0,0.0,82,0.00,,---,0.00,VWS V14.01,2013-05-26 12:51:00,
2013-05-26 07:56:00,70.9,64.8,29.00,ENE,68,0.0,0.0,81,0.00,,---,0.00,VWS V14.01,2013-05-26 12:56:00,
2013-05-26 08:01:00,71.1,64.9,29.00,East,90,0.0,0.9,81,0.00,,---,0.00,VWS V14.01,2013-05-26 13:01:00,
2013-05-26 08:06:00,71.4,64.9,29.00,NW,315,0.0,0.0,80,0.00,,---,0.00,VWS V14.01,2013-05-26 13:06:00,
2013-05-26 08:11:00,72.0,65.1,29.00,WNW,292,0.0,0.0,79,0.00,,---,0.00,VWS V14.01,2013-05-26 13:11:00,
2013-05-26 08:16:00,72.3,65.4,29.00,NE,45,0.0,0.0,79,0.00,,---,0.00,VWS V14.01,2013-05-26 13:16:00,
2013-05-26 08:21:00,72.9,65.6,29.00,South,180,0.0,0.0,78,0.00,,---,0.00,VWS V14.01,2013-05-26 13:21:00,
2013-05-26 08:26:00,73.4,65.8,29.00,SE,135,0.0,0.0,77,0.00,,---,0.00,VWS V14.01,2013-05-26 13:26:00,
2013-05-26 08:31:00,73.8,65.7,29.00,South,180,0.0,0.0,76,0.00,,---,0.00,VWS V14.01,2013-05-26 13:31:00,
2013-05-26 08:36:00,73.8,65.3,29.00,WSW,248,0.0,0.0,75,0.00,,---,0.00,VWS V14.01,2013-05-26 13:36:00,
2013-05-26 08:41:00,73.8,65.0,29.00,NNW,338,0.0,0.0,74,0.00,,---,0.00,VWS V14.01,2013-05-26 13:41:00,
2013-05-26 08:46:00,73.9,65.1,29.00,ENE,68,0.0,0.0,74,0.00,,---,0.00,VWS V14.01,2013-05-26 13:46:00,
2013-05-26 08:51:00,73.8,64.6,29.00,East,90,0.0,0.9,73,0.00,,---,0.00,VWS V14.01,2013-05-26 13:51:00,
2013-05-26 08:56:00,74.3,65.1,29.00,SSE,158,0.0,0.0,73,0.00,,---,0.00,VWS V14.01,2013-05-26 13:56:00,
2013-05-26 09:01:00,74.5,64.9,29.00,SW,225,0.0,0.0,72,0.00,,---,0.00,VWS V14.01,2013-05-26 14:01:00,
2013-05-26 09:06:00,74.8,65.2,29.00,NE,45,0.9,0.9,72,0.00,,---,0.00,VWS V14.01,2013-05-26 14:06:00,
2013-05-26 09:11:00,74.7,64.6,29.03,East,90,0.0,0.0,71,0.00,,---,0.00,VWS V14.01,2013-05-26 14:11:00,
2013-05-26 09:16:00,74.3,64.3,29.03,NW,315,0.0,0.0,71,0.00,,---,0.00,VWS V14.01,2013-05-26 14:16:00,
2013-05-26 09:21:00,74.3,64.3,29.03,NNE,22,0.0,0.0,71,0.00,,---,0.00,VWS V14.01,2013-05-26 14:21:00,
2013-05-26 09:26:00,74.1,64.1,29.03,NNW,338,0.0,0.0,71,0.00,,---,0.00,VWS V14.01,2013-05-26 14:26:00,
2013-05-26 09:31:00,74.7,64.6,29.03,WNW,292,0.0,0.0,71,0.00,,---,0.00,VWS V14.01,2013-05-26 14:31:00,
2013-05-26 09:36:00,75.4,65.3,29.03,NNE,22,0.0,0.9,71,0.00,,---,0.00,VWS V14.01,2013-05-26 14:36:00,
2013-05-26 09:41:00,75.9,65.8,29.03,ENE,68,0.0,0.0,71,0.00,,---,0.00,VWS V14.01,2013-05-26 14:41:00,
2013-05-26 09:46:00,76.5,66.0,29.03,North,0,0.0,0.9,70,0.00,,---,0.00,VWS V14.01,2013-05-26 14:46:00,
2013-05-26 09:51:00,77.2,66.2,29.03,ESE,112,0.0,0.0,69,0.00,,---,0.00,VWS V14.01,2013-05-26 14:51:00,
2013-05-26 09:56:00,78.1,67.1,29.03,ESE,112,0.0,0.0,69,0.00,,---,0.00,VWS V14.01,2013-05-26 14:56:00,
2013-05-26 10:01:00,78.1,66.7,29.00,SSE,158,0.0,0.9,68,0.00,,---,0.00,VWS V14.01,2013-05-26 15:01:00,
2013-05-26 10:06:00,78.3,66.4,29.00,SSW,202,0.0,0.0,67,0.00,,---,0.00,VWS V14.01,2013-05-26 15:06:00,
2013-05-26 10:11:00,78.3,66.0,29.03,ENE,68,0.0,0.0,66,0.00,,---,0.00,VWS V14.01,2013-05-26 15:11:00,
2013-05-26 10:16:00,77.7,65.5,29.03,West,270,0.0,0.0,66,0.00,,---,0.00,VWS V14.01,2013-05-26 15:16:00,
2013-05-26 10:21:00,77.7,65.0,29.03,South,180,0.0,0.0,65,0.00,,---,0.00,VWS V14.01,2013-05-26 15:21:00,
2013-05-26 10:26:00,78.1,65.8,29.03,West,270,0.0,0.0,66,0.00,,---,0.00,VWS V14.01,2013-05-26 15:26:00,
2013-05-26 10:31:00,78.6,65.9,29.03,West,270,0.0,0.9,65,0.00,,---,0.00,VWS V14.01,2013-05-26 15:31:00,
2013-05-26 10:36:00,79.2,65.9,29.03,East,90,0.0,0.0,64,0.00,,---,0.00,VWS V14.01,2013-05-26 15:36:00,
2013-05-26 10:41:00,79.3,66.1,29.00,WSW,248,0.0,0.9,64,0.00,,---,0.00,VWS V14.01,2013-05-26 15:41:00,
2013-05-26 10:46:00,79.3,66.1,29.00,NNW,338,0.0,0.0,64,0.00,,---,0.00,VWS V14.01,2013-05-26 15:46:00,
2013-05-26 10:51:00,79.9,66.6,29.00,WNW,292,0.0,0.0,64,0.00,,---,0.00,VWS V14.01,2013-05-26 15:51:00,
2013-05-26 10:56:00,79.9,66.2,29.00,West,270,0.0,0.0,63,0.00,,---,0.00,VWS V14.01,2013-05-26 15:56:00,
2013-05-26 11:01:00,79.9,66.2,29.00,WNW,292,0.0,0.0,63,0.00,,---,0.00,VWS V14.01,2013-05-26 16:01:00,
2013-05-26 11:06:00,79.5,65.4,29.00,WSW,248,0.0,0.0,62,0.00,,---,0.00,VWS V14.01,2013-05-26 16:06:00,
2013-05-26 11:11:00,79.7,65.5,29.00,NNW,338,0.0,0.9,62,0.00,,---,0.00,VWS V14.01,2013-05-26 16:11:00,
2013-05-26 11:16:00,80.1,65.9,29.00,WSW,248,0.0,0.0,62,0.00,,---,0.00,VWS V14.01,2013-05-26 16:16:00,
2013-05-26 11:21:00,80.6,65.9,29.00,SW,225,0.0,0.9,61,0.00,,---,0.00,VWS V14.01,2013-05-26 16:21:00,
2013-05-26 11:26:00,80.8,66.1,29.00,ESE,112,0.0,0.0,61,0.00,,---,0.00,VWS V14.01,2013-05-26 16:26:00,
2013-05-26 11:31:00,81.5,66.3,29.00,WNW,292,0.0,0.0,60,0.00,,---,0.00,VWS V14.01,2013-05-26 16:31:00,
2013-05-26 11:36:00,81.9,66.1,29.00,NNW,338,0.0,0.0,59,0.00,,---,0.00,VWS V14.01,2013-05-26 16:36:00,
2013-05-26 11:41:00,82.9,67.2,29.00,SW,225,0.0,0.0,59,0.00,,---,0.00,VWS V14.01,2013-05-26 16:41:00,
2013-05-26 11:46:00,84.0,67.2,29.00,East,90,0.0,0.0,57,0.00,,---,0.00,VWS V14.01,2013-05-26 16:46:00,
2013-05-26 11:51:00,84.7,66.8,29.00,East,90,0.0,0.0,55,0.00,,---,0.00,VWS V14.01,2013-05-26 16:51:00,
2013-05-26 11:56:00,84.2,65.8,29.00,NE,45,0.0,0.9,54,0.00,,---,0.00,VWS V14.01,2013-05-26 16:56:00,
2013-05-26 12:01:00,83.5,64.6,29.00,SW,225,0.0,0.0,53,0.00,,---,0.00,VWS V14.01,2013-05-26 17:01:00,
2013-05-26 12:06:00,84.7,66.3,29.00,SSE,158,0.0,0.0,54,0.00,,---,0.00,VWS V14.01,2013-05-26 17:06:00,
2013-05-26 12:11:00,84.2,65.2,29.00,ESE,112,0.0,0.0,53,0.00,,---,0.00,VWS V14.01,2013-05-26 17:11:00,
2013-05-26 12:16:00,84.2,64.7,29.00,East,90,0.0,0.0,52,0.00,,---,0.00,VWS V14.01,2013-05-26 17:16:00,
2013-05-26 12:21:00,83.7,64.2,29.00,East,90,0.0,0.0,52,0.00,,---,0.00,VWS V14.01,2013-05-26 17:21:00,
2013-05-26 12:26:00,83.5,64.0,29.00,North,0,0.0,0.0,52,0.00,,---,0.00,VWS V14.01,2013-05-26 17:26:00,
2013-05-26 12:31:00,82.9,64.1,29.00,SW,225,0.0,0.9,53,0.00,,---,0.00,VWS V14.01,2013-05-26 17:31:00,
2013-05-26 12:36:00,84.4,65.4,29.00,WNW,292,0.0,0.0,53,0.00,,---,0.00,VWS V14.01,2013-05-26 17:36:00,
2013-05-26 12:41:00,84.9,65.3,28.97,NW,315,0.0,0.9,52,0.00,,---,0.00,VWS V14.01,2013-05-26 17:41:00,
2013-05-26 12:46:00,85.8,66.2,28.97,NNE,22,0.0,0.0,52,0.00,,---,0.00,VWS V14.01,2013-05-26 17:46:00,
2013-05-26 12:51:00,86.0,65.2,28.97,West,270,0.0,1.6,50,0.00,,---,0.00,VWS V14.01,2013-05-26 17:51:00,
2013-05-26 12:56:00,88.0,67.0,28.97,East,90,0.9,0.9,50,0.00,,---,0.00,VWS V14.01,2013-05-26 17:56:00,
2013-05-26 13:01:00,88.2,64.8,28.97,WNW,292,0.0,1.3,46,0.00,,---,0.00,VWS V14.01,2013-05-26 18:01:00,
2013-05-26 13:06:00,88.2,64.2,28.97,ENE,68,0.0,0.9,45,0.00,,---,0.00,VWS V14.01,2013-05-26 18:06:00,
2013-05-26 13:11:00,87.1,63.8,28.97,East,90,0.0,0.0,46,0.00,,---,0.00,VWS V14.01,2013-05-26 18:11:00,
2013-05-26 13:16:00,88.0,65.2,28.97,East,90,0.0,1.1,47,0.00,,---,0.00,VWS V14.01,2013-05-26 18:16:00,
2013-05-26 13:21:00,88.5,63.8,28.97,SSW,202,0.0,0.0,44,0.00,,---,0.00,VWS V14.01,2013-05-26 18:21:00,
2013-05-26 13:26:00,86.4,62.5,28.97,NW,315,0.0,0.0,45,0.00,,---,0.00,VWS V14.01,2013-05-26 18:26:00,
2013-05-26 13:31:00,85.6,62.5,28.97,NE,45,0.0,1.1,46,0.00,,---,0.00,VWS V14.01,2013-05-26 18:31:00,
2013-05-26 13:36:00,89.1,66.2,28.97,ENE,68,0.0,0.0,47,0.00,,---,0.00,VWS V14.01,2013-05-26 18:36:00,
2013-05-26 13:41:00,89.2,65.1,28.97,East,90,0.0,0.9,45,0.00,,---,0.00,VWS V14.01,2013-05-26 18:41:00,
2013-05-26 13:46:00,88.0,63.4,28.97,WNW,292,0.0,1.1,44,0.00,,---,0.00,VWS V14.01,2013-05-26 18:46:00,
2013-05-26 13:51:00,87.3,63.3,28.97,WNW,292,0.0,1.1,45,0.00,,---,0.00,VWS V14.01,2013-05-26 18:51:00,
2013-05-26 13:56:00,89.6,64.8,28.97,NNW,338,0.9,0.9,44,0.00,,---,0.00,VWS V14.01,2013-05-26 18:56:00,
2013-05-26 14:01:00,89.8,63.0,28.97,North,0,0.0,0.0,41,0.00,,---,0.00,VWS V14.01,2013-05-26 19:01:00,
2013-05-26 14:06:00,88.2,62.2,28.97,NNW,338,0.0,0.0,42,0.00,,---,0.00,VWS V14.01,2013-05-26 19:06:00,
2013-05-26 14:11:00,87.6,62.4,28.97,NW,315,1.1,1.1,43,0.00,,---,0.00,VWS V14.01,2013-05-26 19:11:00,
2013-05-26 14:16:00,88.2,62.9,28.97,NNE,22,0.0,0.0,43,0.00,,---,0.00,VWS V14.01,2013-05-26 19:16:00,
2013-05-26 14:21:00,89.1,64.3,28.97,WSW,248,0.0,0.0,44,0.00,,---,0.00,VWS V14.01,2013-05-26 19:21:00,
2013-05-26 14:26:00,90.3,65.5,28.97,WSW,248,0.0,0.0,44,0.00,,---,0.00,VWS V14.01,2013-05-26 19:26:00,
2013-05-26 14:31:00,90.1,64.0,28.97,WNW,292,0.0,1.1,42,0.00,,---,0.00,VWS V14.01,2013-05-26 19:31:00,
2013-05-26 14:36:00,88.7,62.7,28.97,NW,315,0.0,0.0,42,0.00,,---,0.00,VWS V14.01,2013-05-26 19:36:00,
2013-05-26 14:41:00,88.5,63.2,28.94,WNW,292,0.0,0.0,43,0.00,,---,0.00,VWS V14.01,2013-05-26 19:41:00,
2013-05-26 14:46:00,89.6,64.2,28.94,NW,315,0.9,0.9,43,0.00,,---,0.00,VWS V14.01,2013-05-26 19:46:00,
2013-05-26 14:51:00,89.8,63.7,28.94,NW,315,0.0,0.9,42,0.00,,---,0.00,VWS V14.01,2013-05-26 19:51:00,
2013-05-26 14:56:00,90.1,63.3,28.94,West,270,0.0,0.9,41,0.00,,---,0.00,VWS V14.01,2013-05-26 19:56:00,
2013-05-26 15:01:00,90.1,64.0,28.94,WNW,292,0.0,0.9,42,0.00,,---,0.00,VWS V14.01,2013-05-26 20:01:00,
2013-05-26 15:06:00,91.2,64.2,28.94,SSW,202,0.0,0.9,41,0.00,,---,0.00,VWS V14.01,2013-05-26 20:06:00,
2013-05-26 15:11:00,89.4,62.6,28.91,East,90,0.0,0.9,41,0.00,,---,0.00,VWS V14.01,2013-05-26 20:11:00,
2013-05-26 15:16:00,89.6,63.5,28.91,South,180,0.0,0.0,42,0.00,,---,0.00,VWS V14.01,2013-05-26 20:16:00,
2013-05-26 15:21:00,89.6,63.5,28.91,East,90,0.0,2.5,42,0.00,,---,0.00,VWS V14.01,2013-05-26 20:21:00,
2013-05-26 15:26:00,90.5,64.3,28.91,WNW,292,0.0,0.0,42,0.00,,---,0.00,VWS V14.01,2013-05-26 20:26:00,
2013-05-26 15:31:00,89.8,63.0,28.91,NW,315,0.0,0.0,41,0.00,,---,0.00,VWS V14.01,2013-05-26 20:31:00,
2013-05-26 15:36:00,88.0,62.7,28.91,NNW,338,0.0,0.0,43,0.00,,---,0.00,VWS V14.01,2013-05-26 20:36:00,
2013-05-26 15:41:00,87.4,62.9,28.91,SSW,202,0.0,0.0,44,0.00,,---,0.00,VWS V14.01,2013-05-26 20:41:00,
2013-05-26 15:46:00,88.2,63.5,28.91,WSW,248,0.9,0.9,44,0.00,,---,0.00,VWS V14.01,2013-05-26 20:46:00,
2013-05-26 15:51:00,88.0,62.7,28.91,SSW,202,0.0,1.1,43,0.00,,---,0.00,VWS V14.01,2013-05-26 20:51:00,
2013-05-26 15:56:00,88.3,63.0,28.91,South,180,0.0,0.0,43,0.00,,---,0.00,VWS V14.01,2013-05-26 20:56:00,
2013-05-26 16:01:00,88.0,62.7,28.91,North,0,0.0,0.0,43,0.00,,---,0.00,VWS V14.01,2013-05-26 21:01:00,
2013-05-26 16:06:00,87.1,62.5,28.91,ENE,68,0.0,0.0,44,0.00,,---,0.00,VWS V14.01,2013-05-26 21:06:00,
2013-05-26 16:11:00,86.2,62.4,28.91,ENE,68,0.0,0.0,45,0.00,,---,0.00,VWS V14.01,2013-05-26 21:11:00,
2013-05-26 16:16:00,86.0,62.2,28.91,NNW,338,0.0,0.0,45,0.00,,---,0.00,VWS V14.01,2013-05-26 21:16:00,
2013-05-26 16:21:00,86.9,64.3,28.91,ESE,112,0.9,0.9,47,0.00,,---,0.00,VWS V14.01,2013-05-26 21:21:00,
2013-05-26 16:26:00,86.7,63.5,28.91,West,270,0.0,0.0,46,0.00,,---,0.00,VWS V14.01,2013-05-26 21:26:00,
2013-05-26 16:31:00,85.5,62.3,28.91,West,270,0.0,0.0,46,0.00,,---,0.00,VWS V14.01,2013-05-26 21:31:00,
2013-05-26 16:36:00,84.9,61.8,28.91,NNW,338,0.0,1.1,46,0.00,,---,0.00,VWS V14.01,2013-05-26 21:36:00,
2013-05-26 16:41:00,84.4,61.4,28.91,WSW,248,0.0,0.0,46,0.00,,---,0.00,VWS V14.01,2013-05-26 21:41:00,
2013-05-26 16:46:00,83.8,61.5,28.91,NW,315,0.0,0.0,47,0.00,,---,0.00,VWS V14.01,2013-05-26 21:46:00,
2013-05-26 16:51:00,84.0,62.8,28.91,SE,135,0.0,0.0,49,0.00,,---,0.00,VWS V14.01,2013-05-26 21:51:00,
2013-05-26 16:56:00,84.6,63.9,28.91,West,270,0.0,0.0,50,0.00,,---,0.00,VWS V14.01,2013-05-26 21:56:00,
2013-05-26 17:01:00,84.9,63.7,28.91,ENE,68,0.0,0.0,49,0.00,,---,0.00,VWS V14.01,2013-05-26 22:01:00,
2013-05-26 17:06:00,84.9,63.1,28.91,ENE,68,0.0,0.0,48,0.00,,---,0.00,VWS V14.01,2013-05-26 22:06:00,
2013-05-26 17:11:00,84.7,62.9,28.94,NE,45,0.0,0.0,48,0.00,,---,0.00,VWS V14.01,2013-05-26 22:11:00,
2013-05-26 17:16:00,84.6,62.7,28.94,SW,225,0.0,0.0,48,0.00,,---,0.00,VWS V14.01,2013-05-26 22:16:00,
2013-05-26 17:21:00,84.9,63.7,28.94,WNW,292,0.9,1.1,49,0.00,,---,0.00,VWS V14.01,2013-05-26 22:21:00,
2013-05-26 17:26:00,84.4,62.6,28.91,SW,225,0.9,0.9,48,0.00,,---,0.00,VWS V14.01,2013-05-26 22:26:00,
2013-05-26 17:31:00,84.6,63.3,28.91,ENE,68,0.0,0.9,49,0.00,,---,0.00,VWS V14.01,2013-05-26 22:31:00,
2013-05-26 17:36:00,84.6,63.3,28.91,East,90,0.9,0.9,49,0.00,,---,0.00,VWS V14.01,2013-05-26 22:36:00,
2013-05-26 17:41:00,84.2,61.8,28.91,WNW,292,0.0,0.0,47,0.00,,---,0.00,VWS V14.01,2013-05-26 22:41:00,
2013-05-26 17:46:00,84.4,62.0,28.91,NE,45,0.0,1.3,47,0.00,,---,0.00,VWS V14.01,2013-05-26 22:46:00,
2013-05-26 17:51:00,84.6,62.1,28.91,SSW,202,0.0,0.0,47,0.00,,---,0.00,VWS V14.01,2013-05-26 22:51:00,
2013-05-26 17:56:00,84.6,62.1,28.88,WNW,292,1.1,1.1,47,0.00,,---,0.00,VWS V14.01,2013-05-26 22:56:00,
2013-05-26 18:01:00,84.0,61.6,28.88,SSW,202,0.0,1.1,47,0.00,,---,0.00,VWS V14.01,2013-05-26 23:01:00,
2013-05-26 18:06:00,83.5,61.8,28.88,SE,135,0.0,0.0,48,0.00,,---,0.00,VWS V14.01,2013-05-26 23:06:00,
2013-05-26 18:11:00,83.3,62.2,28.88,West,270,0.0,0.0,49,0.00,,---,0.00,VWS V14.01,2013-05-26 23:11:00,
2013-05-26 18:16:00,83.5,62.3,28.88,NW,315,0.0,0.0,49,0.00,,---,0.00,VWS V14.01,2013-05-26 23:16:00,
2013-05-26 18:21:00,83.8,62.7,28.88,NW,315,0.0,0.0,49,0.00,,---,0.00,VWS V14.01,2013-05-26 23:21:00,
2013-05-26 18:26:00,83.8,62.1,28.88,NNE,22,0.0,1.3,48,0.00,,---,0.00,VWS V14.01,2013-05-26 23:26:00,
2013-05-26 18:31:00,83.7,61.9,28.88,WNW,292,0.0,0.0,48,0.00,,---,0.00,VWS V14.01,2013-05-26 23:31:00,
2013-05-26 18:36:00,83.7,61.9,28.88,ENE,68,0.0,0.0,48,0.00,,---,0.00,VWS V14.01,2013-05-26 23:36:00,
2013-05-26 18:41:00,83.7,62.5,28.88,West,270,0.0,0.9,49,0.00,,---,0.00,VWS V14.01,2013-05-26 23:41:00,
2013-05-26 18:46:00,83.5,62.3,28.88,WSW,248,0.0,0.0,49,0.00,,---,0.00,VWS V14.01,2013-05-26 23:46:00,
2013-05-26 18:51:00,83.5,62.9,28.88,SSW,202,0.0,0.0,50,0.00,,---,0.00,VWS V14.01,2013-05-26 23:51:00,
2013-05-26 18:56:00,83.1,62.6,28.88,East,90,0.0,0.0,50,0.00,,---,0.00,VWS V14.01,2013-05-26 23:56:00,
2013-05-26 19:01:00,82.8,62.8,28.88,East,90,0.0,0.0,51,0.00,,---,0.00,VWS V14.01,2013-05-27 00:01:00,
2013-05-26 19:06:00,82.8,62.8,28.88,West,270,0.9,0.9,51,0.00,,---,0.00,VWS V14.01,2013-05-27 00:06:00,
2013-05-26 19:11:00,82.4,62.5,28.88,NE,45,0.0,0.0,51,0.00,,---,0.00,VWS V14.01,2013-05-27 00:11:00,
2013-05-26 19:16:00,82.0,62.1,28.88,East,90,0.0,0.0,51,0.00,,---,0.00,VWS V14.01,2013-05-27 00:16:00,
2013-05-26 19:21:00,81.5,61.7,28.88,North,0,0.0,0.0,51,0.00,,---,0.00,VWS V14.01,2013-05-27 00:21:00,
2013-05-26 19:26:00,81.3,62.0,28.88,NNW,338,0.0,0.0,52,0.00,,---,0.00,VWS V14.01,2013-05-27 00:26:00,
2013-05-26 19:31:00,80.8,62.1,28.88,ESE,112,0.0,0.0,53,0.00,,---,0.00,VWS V14.01,2013-05-27 00:31:00,
2013-05-26 19:36:00,80.8,62.6,28.88,West,270,0.0,0.0,54,0.00,,---,0.00,VWS V14.01,2013-05-27 00:36:00,
2013-05-26 19:41:00,80.6,62.4,28.88,ESE,112,0.0,0.0,54,0.00,,---,0.00,VWS V14.01,2013-05-27 00:41:00,
2013-05-26 19:46:00,80.2,62.6,28.88,ENE,68,0.0,0.0,55,0.00,,---,0.00,VWS V14.01,2013-05-27 00:46:00,
2013-05-26 19:51:00,79.9,62.3,28.88,North,0,0.0,0.0,55,0.00,,---,0.00,VWS V14.01,2013-05-27 00:51:00,
2013-05-26 19:56:00,79.7,62.6,28.88,ENE,68,0.0,0.0,56,0.00,,---,0.00,VWS V14.01,2013-05-27 00:56:00,
2013-05-26 20:01:00,79.5,62.5,28.88,NE,45,0.0,0.0,56,0.00,,---,0.00,VWS V14.01,2013-05-27 01:01:00,
2013-05-26 20:06:00,79.3,62.3,28.88,East,90,0.0,0.0,56,0.00,,---,0.00,VWS V14.01,2013-05-27 01:06:00,
2013-05-26 20:11:00,79.2,62.6,28.88,ENE,68,0.0,0.0,57,0.00,,---,0.00,VWS V14.01,2013-05-27 01:11:00,
2013-05-26 20:16:00,79.0,62.5,28.88,South,180,0.0,0.0,57,0.00,,---,0.00,VWS V14.01,2013-05-27 01:16:00,
2013-05-26 20:21:00,79.0,63.4,28.88,SE,135,0.0,0.0,59,0.00,,---,0.00,VWS V14.01,2013-05-27 01:21:00,
2013-05-26 20:26:00,78.8,63.3,28.88,SSW,202,0.0,0.0,59,0.00,,---,0.00,VWS V14.01,2013-05-27 01:26:00,
2013-05-26 20:31:00,78.6,63.1,28.88,SSE,158,0.0,0.0,59,0.00,,---,0.00,VWS V14.01,2013-05-27 01:31:00,
2013-05-26 20:36:00,78.4,62.9,28.88,NW,315,0.0,0.0,59,0.00,,---,0.00,VWS V14.01,2013-05-27 01:36:00,
2013-05-26 20:41:00,78.3,62.8,28.88,NNE,22,0.0,0.0,59,0.00,,---,0.00,VWS V14.01,2013-05-27 01:41:00,
2013-05-26 20:46:00,78.4,62.9,28.88,West,270,0.0,0.0,59,0.00,,---,0.00,VWS V14.01,2013-05-27 01:46:00,
2013-05-26 20:51:00,78.4,63.4,28.88,East,90,0.0,0.0,60,0.00,,---,0.00,VWS V14.01,2013-05-27 01:51:00,
2013-05-26 20:56:00,78.4,62.9,28.88,South,180,0.0,0.0,59,0.00,,---,0.00,VWS V14.01,2013-05-27 01:56:00,
2013-05-26 21:01:00,78.3,62.8,28.88,South,180,0.0,0.0,59,0.00,,---,0.00,VWS V14.01,2013-05-27 02:01:00,
2013-05-26 21:06:00,78.1,62.6,28.88,West,270,0.0,0.0,59,0.00,,---,0.00,VWS V14.01,2013-05-27 02:06:00,
2013-05-26 21:11:00,78.1,62.6,28.88,SE,135,0.0,0.0,59,0.00,,---,0.00,VWS V14.01,2013-05-27 02:11:00,
2013-05-26 21:16:00,78.3,62.8,28.88,NNW,338,0.0,0.9,59,0.00,,---,0.00,VWS V14.01,2013-05-27 02:16:00,
2013-05-26 21:21:00,78.1,62.6,28.88,WSW,248,0.0,0.0,59,0.00,,---,0.00,VWS V14.01,2013-05-27 02:21:00,
2013-05-26 21:26:00,77.7,62.3,28.91,South,180,0.0,0.0,59,0.00,,---,0.00,VWS V14.01,2013-05-27 02:26:00,
2013-05-26 21:31:00,77.5,62.6,28.91,SSW,202,0.0,0.0,60,0.00,,---,0.00,VWS V14.01,2013-05-27 02:31:00,
2013-05-26 21:36:00,77.4,62.4,28.91,SSE,158,0.0,0.0,60,0.00,,---,0.00,VWS V14.01,2013-05-27 02:36:00,
2013-05-26 21:41:00,77.2,62.2,28.91,SE,135,0.0,0.0,60,0.00,,---,0.00,VWS V14.01,2013-05-27 02:41:00,
2013-05-26 21:46:00,77.2,62.7,28.91,ESE,112,0.9,0.9,61,0.00,,---,0.00,VWS V14.01,2013-05-27 02:46:00,
2013-05-26 21:51:00,76.8,62.4,28.91,WSW,248,0.0,0.0,61,0.00,,---,0.00,VWS V14.01,2013-05-27 02:51:00,
2013-05-26 21:56:00,76.5,62.0,28.91,WSW,248,0.0,0.0,61,0.00,,---,0.00,VWS V14.01,2013-05-27 02:56:00,
2013-05-26 22:01:00,76.3,62.3,28.91,SW,225,0.0,0.0,62,0.00,,---,0.00,VWS V14.01,2013-05-27 03:01:00,
2013-05-26 22:06:00,76.3,62.8,28.91,SSE,158,0.0,0.0,63,0.00,,---,0.00,VWS V14.01,2013-05-27 03:06:00,
2013-05-26 22:11:00,76.3,62.8,28.91,South,180,0.0,0.0,63,0.00,,---,0.00,VWS V14.01,2013-05-27 03:11:00,
2013-05-26 22:16:00,76.5,62.9,28.91,SSW,202,0.0,0.0,63,0.00,,---,0.00,VWS V14.01,2013-05-27 03:16:00,
2013-05-26 22:21:00,76.5,62.9,28.91,South,180,0.0,0.0,63,0.00,,---,0.00,VWS V14.01,2013-05-27 03:21:00,
2013-05-26 22:26:00,76.6,63.1,28.91,ESE,112,0.0,0.0,63,0.00,,---,0.00,VWS V14.01,2013-05-27 03:26:00,
2013-05-26 22:31:00,76.6,63.1,28.91,WSW,248,0.0,0.0,63,0.00,,---,0.00,VWS V14.01,2013-05-27 03:31:00,
2013-05-26 22:36:00,76.6,62.7,28.91,SW,225,0.0,0.0,62,0.00,,---,0.00,VWS V14.01,2013-05-27 03:36:00,
2013-05-26 22:41:00,76.6,62.7,28.91,WNW,292,0.0,0.0,62,0.00,,---,0.00,VWS V14.01,2013-05-27 03:41:00,
2013-05-26 22:46:00,76.6,62.7,28.91,SSW,202,0.0,0.0,62,0.00,,---,0.00,VWS V14.01,2013-05-27 03:46:00,
2013-05-26 22:51:00,76.6,62.7,28.91,South,180,0.0,0.0,62,0.00,,---,0.00,VWS V14.01,2013-05-27 03:51:00,
2013-05-26 22:56:00,76.5,62.5,28.91,SW,225,0.0,0.0,62,0.00,,---,0.00,VWS V14.01,2013-05-27 03:56:00,
2013-05-26 23:01:00,76.3,62.3,28.91,SSE,158,0.0,0.0,62,0.00,,---,0.00,VWS V14.01,2013-05-27 04:01:00,
2013-05-26 23:02:00,76.3,62.3,28.91,South,180,0.0,0.0,62,0.00,,---,0.00,VWS V14.01,2013-05-27 04:02:00,
2013-05-26 23:07:00,76.3,62.3,28.91,North,0,0.0,0.0,62,0.00,,---,0.00,VWS V14.01,2013-05-27 04:07:00,
2013-05-26 23:12:00,76.1,62.2,28.91,SSE,158,0.0,0.0,62,0.00,,---,0.00,VWS V14.01,2013-05-27 04:12:00,
2013-05-26 23:17:00,76.1,62.2,28.91,North,0,0.0,0.0,62,0.00,,---,0.00,VWS V14.01,2013-05-27 04:17:00,
2013-05-26 23:22:00,75.9,62.0,28.91,North,0,0.0,0.0,62,0.00,,---,0.00,VWS V14.01,2013-05-27 04:22:00,
2013-05-26 23:27:00,75.7,61.8,28.91,NNE,22,0.0,0.0,62,0.00,,---,0.00,VWS V14.01,2013-05-27 04:27:00,
2013-05-26 23:32:00,75.6,61.6,28.91,WSW,248,0.0,0.0,62,0.00,,---,0.00,VWS V14.01,2013-05-27 04:32:00,
2013-05-26 23:37:00,75.6,61.6,28.91,WSW,248,0.0,0.0,62,0.00,,---,0.00,VWS V14.01,2013-05-27 04:37:00,
2013-05-26 23:42:00,75.4,61.5,28.91,SSW,202,0.0,0.0,62,0.00,,---,0.00,VWS V14.01,2013-05-27 04:42:00,
2013-05-26 23:47:00,75.0,61.6,28.91,SW,225,0.0,0.0,63,0.00,,---,0.00,VWS V14.01,2013-05-27 04:47:00,
2013-05-26 23:52:00,74.8,61.4,28.91,NW,315,0.0,0.0,63,0.00,,---,0.00,VWS V14.01,2013-05-27 04:52:00,
2013-05-26 23:57:00,74.7,61.7,28.91,West,270,0.0,0.0,64,0.00,,---,0.00,VWS V14.01,2013-05-27 04:57:00,